Weather History for Rensselaer, IN

Change the Weather History Date:

Sunday, September 29, 2013

  Actual Average (KVPZ) Record (KVPZ)
Temperature  
Mean Temperature 60 °F 58 °F  
Max Temperature 71 °F 69 °F 83 °F (2002)
Min Temperature 50 °F 47 °F 37 °F (2006)
Degree Days  
Heating Degree Days 4 8  
Month to date heating degree days 106  
Since 1 July heating degree days 123  
Cooling Degree Days 0 1  
Month to date cooling degree days 64  
Year to date cooling degree days 700  
Growing Degree Days 10 (Base 50)    
Moisture  
Dew Point 52 °F    
Average Humidity 71    
Maximum Humidity 100    
Minimum Humidity 43    
Precipitation  
Precipitation 0.12 in 0.11 in 0.26 in (1999)
Month to date precipitation 3.09  
Year to date precipitation 28.63  
Sea Level Pressure  
Sea Level Pressure 30.01 in    
Wind  
Wind Speed 8 mph (NNW)    
Max Wind Speed 14 mph    
Max Gust Speed 21 mph    
Visibility 10 miles    
Events Rain    
T = Trace of Precipitation, MM = Missing Value Source: NWS Daily Summary

Daily Weather History Graph

Daily Weather History Graph

Search for Another Location

Airport:

Trip Planner

Search our weather history database for the weather conditions in past years. The results will help you decide how hot, cold, wet, or windy it might be!

Date:

Astronomy

Sep. 29, 2013 Rise Set
Actual Time 6:43 AM CDT 6:33 PM CDT
Civil Twilight 6:16 AM CDT 7:00 PM CDT
Nautical Twilight 5:44 AM CDT 7:32 PM CDT
Astronomical Twilight 5:11 AM CDT 8:05 PM CDT
Moon 1:22 AM CDT (9/29) 3:31 PM CDT (9/29)
Length of Visible Light 12h 44m
Length of Day
11h 50m
Waning Crescent, 27% of the Moon is Illuminated
Sep 29
Waning Crescent
Oct 4
New
Oct 11
First Quarter
Oct 18
Full
Oct 26
Last Quarter

Hourly Weather History & Observations

Time (CDT) Temp. Dew Point Humidity Pressure Visibility Wind Dir Wind Speed Gust Speed Precip Events Conditions
12:15 AM 71.6 °F 53.6 °F 53% 29.98 in 10.0 mi South 11.5 mph 16.1 mph N/A   Overcast
12:35 AM 71.6 °F 53.6 °F 53% 29.98 in 10.0 mi South 12.7 mph - N/A   Overcast
12:55 AM 71.6 °F 53.6 °F 53% 29.98 in 10.0 mi South 11.5 mph - N/A   Overcast
1:15 AM 69.8 °F 53.6 °F 56% 29.97 in 10.0 mi South 11.5 mph 16.1 mph N/A   Overcast
1:35 AM 69.8 °F 53.6 °F 56% 29.97 in 10.0 mi South 10.4 mph - N/A   Overcast
1:55 AM 71.6 °F 53.6 °F 53% 29.97 in 10.0 mi SSW 12.7 mph 18.4 mph N/A   Overcast
2:15 AM 71.6 °F 53.6 °F 53% 29.97 in 10.0 mi SSW 11.5 mph 20.7 mph N/A   Overcast
2:35 AM 69.8 °F 53.6 °F 56% 29.96 in 10.0 mi SSW 10.4 mph - N/A   Overcast
2:55 AM 69.8 °F 55.4 °F 60% 29.96 in 10.0 mi SSW 10.4 mph 17.3 mph N/A   Overcast
3:15 AM 69.8 °F 55.4 °F 60% 29.96 in 10.0 mi SSW 11.5 mph 16.1 mph N/A   Overcast
3:35 AM 68.0 °F 55.4 °F 64% 29.97 in 10.0 mi SW 11.5 mph 17.3 mph N/A   Overcast
3:55 AM 64.4 °F 60.8 °F 88% 29.97 in 7.0 mi WSW 10.4 mph - 0.01 in Rain Light Rain
4:15 AM 62.6 °F 60.8 °F 94% 29.97 in 5.0 mi WSW 6.9 mph - 0.05 in Rain Light Rain
4:35 AM 62.6 °F 60.8 °F 94% 29.96 in 7.0 mi WSW 5.8 mph - 0.05 in Rain Rain
4:55 AM 62.6 °F 60.8 °F 94% 29.97 in 5.0 mi WSW 6.9 mph - 0.08 in Rain Light Rain
5:15 AM 62.6 °F 60.8 °F 94% 29.98 in 5.0 mi NW 13.8 mph 18.4 mph 0.02 in Rain Rain
5:35 AM 59.0 °F 59.0 °F 100% 29.99 in 10.0 mi NNW 9.2 mph 19.6 mph 0.03 in   Drizzle
5:55 AM 59.0 °F 55.4 °F 88% 30.00 in 10.0 mi NNW 8.1 mph - 0.03 in   Light Drizzle
6:15 AM 57.2 °F 55.4 °F 94% 30.00 in 10.0 mi North 10.4 mph 16.1 mph N/A   Overcast
6:35 AM 57.2 °F 55.4 °F 94% 30.00 in 10.0 mi North 9.2 mph - N/A   Overcast
6:55 AM 57.2 °F 55.4 °F 94% 30.00 in 10.0 mi North 9.2 mph - N/A   Overcast
7:15 AM 57.2 °F 55.4 °F 94% 30.02 in 10.0 mi North 5.8 mph - N/A   Overcast
7:35 AM 57.2 °F 55.4 °F 94% 30.02 in 10.0 mi NNW 4.6 mph - N/A   Overcast
7:55 AM 59.0 °F 55.4 °F 88% 30.02 in 10.0 mi North 4.6 mph - N/A   Overcast
8:15 AM 59.0 °F 55.4 °F 88% 30.03 in 10.0 mi NNW 3.5 mph - N/A   Overcast
8:35 AM 59.0 °F 55.4 °F 88% 30.03 in 10.0 mi North 4.6 mph - N/A   Overcast
8:55 AM 60.8 °F 57.2 °F 88% 30.03 in 10.0 mi NNW 6.9 mph - N/A   Overcast
9:15 AM 60.8 °F 55.4 °F 82% 30.04 in 10.0 mi North 4.6 mph - N/A   Overcast
9:35 AM 60.8 °F 55.4 °F 82% 30.04 in 10.0 mi North 6.9 mph - N/A   Overcast
9:55 AM 62.6 °F 55.4 °F 77% 30.04 in 10.0 mi North 6.9 mph - N/A   Overcast
10:15 AM 62.6 °F 55.4 °F 77% 30.04 in 10.0 mi North 8.1 mph - N/A   Overcast
10:35 AM 62.6 °F 55.4 °F 77% 30.04 in 10.0 mi NNE 6.9 mph - N/A   Mostly Cloudy
10:55 AM 64.4 °F 55.4 °F 73% 30.04 in 10.0 mi NNW 6.9 mph - N/A   Mostly Cloudy
11:15 AM 64.4 °F 53.6 °F 68% 30.04 in 10.0 mi North 4.6 mph - N/A   Mostly Cloudy
11:35 AM 66.2 °F 53.6 °F 64% 30.04 in 10.0 mi NNE 3.5 mph - N/A   Mostly Cloudy
11:55 AM 66.2 °F 53.6 °F 64% 30.04 in 10.0 mi North 5.8 mph - N/A   Mostly Cloudy
12:15 PM 66.2 °F 53.6 °F 64% 30.04 in 10.0 mi NNW 6.9 mph - N/A   Mostly Cloudy
12:35 PM 68.0 °F 51.8 °F 56% 30.03 in 10.0 mi NNW 6.9 mph - N/A   Mostly Cloudy
12:55 PM 68.0 °F 51.8 °F 56% 30.03 in 10.0 mi North 6.9 mph - N/A   Scattered Clouds
1:15 PM 68.0 °F 50.0 °F 52% 30.02 in 10.0 mi NNW 8.1 mph - N/A   Scattered Clouds
1:35 PM 68.0 °F 48.2 °F 49% 30.01 in 10.0 mi NW 3.5 mph - N/A   Scattered Clouds
1:55 PM 68.0 °F 48.2 °F 49% 30.01 in 10.0 mi NNW 5.8 mph - N/A   Mostly Cloudy
2:15 PM 69.8 °F 46.4 °F 43% 30.00 in 10.0 mi North 10.4 mph 18.4 mph N/A   Scattered Clouds
2:35 PM 68.0 °F 48.2 °F 49% 30.01 in 10.0 mi NNW 5.8 mph - N/A   Mostly Cloudy
2:55 PM 69.8 °F 48.2 °F 46% 30.00 in 10.0 mi North 10.4 mph - N/A   Mostly Cloudy
3:15 PM 68.0 °F 46.4 °F 46% 30.00 in 10.0 mi North 6.9 mph - N/A   Mostly Cloudy
3:35 PM 68.0 °F 46.4 °F 46% 30.00 in 10.0 mi NNW 8.1 mph - N/A   Clear
3:55 PM 68.0 °F 46.4 °F 46% 30.00 in 10.0 mi NNW 5.8 mph - N/A   Clear
4:15 PM 69.8 °F 46.4 °F 43% 30.00 in 10.0 mi North 9.2 mph - N/A   Scattered Clouds
4:35 PM 68.0 °F 46.4 °F 46% 30.00 in 10.0 mi North 9.2 mph - N/A   Mostly Cloudy
4:55 PM 68.0 °F 46.4 °F 46% 30.00 in 10.0 mi North 8.1 mph - N/A   Scattered Clouds
5:15 PM 68.0 °F 46.4 °F 46% 30.00 in 10.0 mi NNW 8.1 mph - N/A   Clear
5:35 PM 66.2 °F 46.4 °F 49% 30.01 in 10.0 mi North 6.9 mph - N/A   Clear
5:55 PM 64.4 °F 46.4 °F 52% 30.01 in 10.0 mi North 6.9 mph - N/A   Clear
6:15 PM 62.6 °F 48.2 °F 59% 30.01 in 10.0 mi North 5.8 mph - N/A   Clear
6:35 PM 60.8 °F 48.2 °F 63% 30.01 in 10.0 mi North 5.8 mph - N/A   Clear
6:55 PM 59.0 °F 48.2 °F 67% 30.01 in 10.0 mi North 6.9 mph - N/A   Clear
7:15 PM 59.0 °F 50.0 °F 72% 30.01 in 10.0 mi North 4.6 mph - N/A   Clear
7:35 PM 57.2 °F 50.0 °F 77% 30.01 in 10.0 mi North 5.8 mph - N/A   Clear
7:55 PM 55.4 °F 50.0 °F 82% 30.01 in 10.0 mi North 5.8 mph - N/A   Clear
8:15 PM 55.4 °F 50.0 °F 82% 30.01 in 10.0 mi North 5.8 mph - N/A   Clear
8:35 PM 55.4 °F 50.0 °F 82% 30.02 in 10.0 mi Calm Calm - N/A   Clear
8:55 PM 53.6 °F 50.0 °F 88% 30.01 in 10.0 mi North 4.6 mph - N/A   Clear
9:15 PM 51.8 °F 50.0 °F 94% 30.01 in 10.0 mi North 3.5 mph - N/A   Clear
9:35 PM 51.8 °F 50.0 °F 94% 30.01 in 10.0 mi Calm Calm - N/A   Clear
9:55 PM 51.8 °F 50.0 °F 94% 30.02 in 10.0 mi North 3.5 mph - N/A   Clear
10:15 PM 53.6 °F 50.0 °F 88% 30.02 in 10.0 mi North 4.6 mph - N/A   Clear
10:35 PM 51.8 °F 48.2 °F 88% 30.02 in 10.0 mi Calm Calm - N/A   Clear
10:55 PM 51.8 °F 50.0 °F 94% 30.02 in 10.0 mi NNW 5.8 mph - N/A   Clear
11:15 PM 50.0 °F 48.2 °F 94% 30.02 in 10.0 mi North 4.6 mph - N/A   Clear
11:35 PM 50.0 °F 48.2 °F 94% 30.02 in 10.0 mi Calm Calm - N/A   Clear
11:55 PM 50.0 °F 46.4 °F 87% 30.02 in 10.0 mi Calm Calm - N/A   Clear